Location: Morisset
(33.1080°S, 151.4871°E)
Time: 08:17:53
(UTC+00:00)

Cosmos 1766 - Pass Details

Date: 29 October 2020
Orbit: 520 x 545 km, 82.5° (Epoch: 28 November)

Event Time Altitude Azimuth Distance (km) Brightness Sun altitude
Exits shadow 16:49:36 65° 137° (SE) 587 3.5 -24.5°
Drops below altitude 10° 16:53:05 10° 170° (S) 1,791 6.5 -23.9°
Sets 16:55:15 0° 171° (S) 2,693 7.5 -23.6°
